Tour de l’Ossau

Class.NomPrénomSexeCatTempsVitesse
1NABIASFabienMSE01:35:0310,73 km/h
2LAGOKévinMSE01:35:2610,69 km/h
3COLLETAndreaMSE01:38:1110,39 km/h
4MANAUTThibaudMSE01:38:5210,32 km/h
5BUCCIARELLIHugoMSE01:39:2310,26 km/h
6HAJJIYahyaMSE01:39:2710,26 km/h
7UTHURRIBORDEMathieuMSE01:39:2810,25 km/h
8CAMBETOlivierMSE01:41:2410,06 km/h
9PIOLDavidMV101:41:2910,05 km/h
10VIDALEricMV201:41:3110,05 km/h
11POUEYNicolasMSE01:42:379,94 km/h
12SOMPROUMathieuMSE01:43:089,89 km/h
13DUPLAS MATEOSMiguel AngelMV101:44:019,81 km/h
14DEGEORGESGeraldMV101:44:149,79 km/h
15JAUREGUIBERRYDavidMV101:44:169,78 km/h
16GUITARDJeremyMSE01:45:309,67 km/h
17VERNIEREPhilippeMV201:45:339,66 km/h
18THEUXNicolasMSE01:45:389,66 km/h
19AMOUDRUZAnthonyMSE01:46:249,59 km/h
20HOURTANECHRISTOPHEMV101:47:189,51 km/h
21POMES-BORDEDEBATFlorentMSE01:47:319,49 km/h
22DUMONTLaurentMSE01:47:439,47 km/h
23PINOUTPierreMSE01:48:359,39 km/h
24MOUREUAlexandreMSE01:48:419,39 km/h
25FABRENicolasMV101:49:059,35 km/h
26ESTEVEMarcMV201:49:339,31 km/h
27ROLOSSEBASTIENMSE01:49:359,31 km/h
28LAJOURNADEDavidMSE01:50:349,23 km/h
29BERNOSThibaultFSE01:51:189,16 km/h
30CHASCONicolasMSE01:51:189,16 km/h
31MAIRALJulienMSE01:51:569,11 km/h
32SANCHEZNoelMV101:52:289,07 km/h
33RAAYMAKERSCyrilMSE01:52:289,07 km/h
34BEAURAINHonoreMSE01:53:029,02 km/h
35SOULATThierryMV101:53:189 km/h
36MEDOUSPaulMSE01:54:598,87 km/h
37PROCESSEChristianMV101:55:218,84 km/h
38VERBEECKEVincentMES01:55:248,84 km/h
39BORDANAVE-VIGNAUPascalMSE01:55:278,83 km/h
40BURCKBUCHLERMaxMV201:56:568,72 km/h
41RAGOTArnaudMSE01:57:058,71 km/h
42CAILLABETVictorMSE01:57:518,66 km/h
43LABEDEYannickMSE01:57:518,66 km/h
44NICOLASHervéMV101:57:558,65 km/h
45PEYREPHILIPPEMV101:57:578,65 km/h
46MARTINEAUSamuelMSE01:58:328,61 km/h
47NAURYJulienMSE01:58:388,6 km/h
48WEBERJulienMSE01:58:488,59 km/h
49TRICAUDMélanieFSE01:59:268,54 km/h
50CAMBLONGRémiMV101:59:348,53 km/h
51THIBAULTCédricMV101:59:498,51 km/h
52BERRIEIXSylvieFV201:59:538,51 km/h
53PEYRUSQUEDidierMV201:59:548,51 km/h
54MOUNAIXRomeoMJU02:00:528,44 km/h
55MOURISSOUXOlivierMSE02:00:598,43 km/h
56FOUILLIARDPierreMV102:02:018,36 km/h
57AGUERPatriceMSE02:02:268,33 km/h
58BATAILLOULucMV102:02:308,33 km/h
59GUYGillesMV102:02:368,32 km/h
60LONGISCharlotteFV102:02:418,31 km/h
61PAULYGillesMV102:02:428,31 km/h
62PEREZJeanmarcMV202:03:318,26 km/h
63PIKEWarrenMSE02:04:358,19 km/h
64MANSORobinMES02:04:398,18 km/h
65CAPDEPONSylvainMSE02:04:408,18 km/h
66SAINT-AGNELaurentMV102:04:488,17 km/h
67LARRONDEAmaïaFSE02:04:538,17 km/h
68HIGNELUSFabriceMSE02:05:108,15 km/h
69DELGADOTristanMSE02:05:188,14 km/h
70MATEOSLaurentMV102:05:408,12 km/h
71TOURNEMOULYHervéMV102:05:468,11 km/h
72FOUCATDidierMV102:06:168,08 km/h
73MAUDUITRomualdMV102:06:238,07 km/h
74LAFITTEStephaneMSE02:06:318,06 km/h
75GIBERTMathiasMV102:06:408,05 km/h
76LAFFORESergeMV202:06:468,05 km/h
77DESILLESNicolasMV102:06:558,04 km/h
78IKEZAWAKenjiMSE02:06:598,03 km/h
79LEFEVRERomainMSE02:07:048,03 km/h
80PERRETJérémyMSE02:07:098,02 km/h
81BATLLEMaximeMSE02:07:118,02 km/h
82CLADIEREMATHIEUMSE02:07:128,02 km/h
83CRAMPESOlivierMSE02:07:148,02 km/h
84MOUTIERBrunoMV202:07:258,01 km/h
85PROCESSEJean-MichelMV102:07:507,98 km/h
86THIBAULTMarcMV102:07:547,97 km/h
87LAFUSTEBaptisteMSE02:08:357,93 km/h
88MORAGREGAYvesMSE02:08:367,93 km/h
89DUPUISPhilippeMV202:08:517,92 km/h
90BODEANFlorianMSE02:08:537,91 km/h
91BORGNAYvanMV202:09:317,88 km/h
92DEWALLESPaulMSE02:10:057,84 km/h
93SAMITIERYvesMV102:10:107,84 km/h
94LECLERCQXavierMV102:10:337,81 km/h
95BALZOLAFranckMV102:10:337,81 km/h
96BEAURAINCelineFSE02:10:427,8 km/h
97MONJUSTEQuentinMES02:10:437,8 km/h
98HUITORELTanguyMSE02:11:327,75 km/h
99COLNOTOlivierMV202:11:437,74 km/h
100BIHINChristopheMV202:11:477,74 km/h
101RIBOULLEAUJoseMV302:11:547,73 km/h
102ORENSANZStéphaneMV102:12:317,7 km/h
103SEGALASGillesMSE02:13:167,65 km/h
104HOURATGuillaumeMSE02:13:167,65 km/h
105GENDREAUChristopheMV102:13:497,62 km/h
106BRIDIERThomasMV102:14:277,59 km/h
107CORNICFrançoisMSE02:14:297,58 km/h
108SIMONEMathieuMV102:14:337,58 km/h
109DOURAU-CADETJean-laurentMSE02:14:347,58 km/h
110SINDICQLionelMSE02:14:437,57 km/h
111DARCISSACAnthonyFV102:14:457,57 km/h
112GUILHOUJean MarcMV202:15:377,52 km/h
113ELLULSébastienMV102:15:597,5 km/h
114TUALChristopheMV202:16:097,49 km/h
115ARRIBEJulienMSE02:16:207,48 km/h
116FAVARELNinaFSE02:17:007,45 km/h
117POMMARESXavierMV102:17:007,45 km/h
118FOURCADEMickaelMSE02:17:027,44 km/h
119THIRANTSylvainMSE02:17:047,44 km/h
120GENSOUMarlèneFSE02:17:257,42 km/h
121MARYNicolasMSE02:17:287,42 km/h
122VANKEIRSBILCKYohanMV102:17:307,42 km/h
123PRIMCelineFSE02:17:577,39 km/h
124BIZIENDenisMSE02:18:027,39 km/h
125BELZRomainMSE02:18:097,38 km/h
126LE COQYvonnickMSE02:18:597,34 km/h
127LARTIGUEGuillaumeMV102:18:597,34 km/h
128BOUTEILLERPHILIPPEMV202:19:057,33 km/h
129LAPEYRELoïcMSE02:19:077,33 km/h
130MEISSELLaurentMSE02:19:357,31 km/h
131FARIA FERNANDESAntonioMV202:19:367,31 km/h
132JACOBCHRISTOPHEMSE02:19:387,3 km/h
133CALASSergeMV202:19:527,29 km/h
134AKKALAdamMSE02:20:027,28 km/h
135AGULLOMathieuMSE02:20:057,28 km/h
136ARBERETDominiqueMV202:20:147,27 km/h
137BERTHAULTGrégoryMSE02:20:157,27 km/h
138SÁNCHEZ PABLOMiguel ÁngelMV102:20:167,27 km/h
139JALBERTRolandMV302:20:247,26 km/h
140PATELJonathanMSE02:21:037,23 km/h
141BOISNEYJacquesMV302:21:087,23 km/h
142GOMBERTFrançoisMV202:21:107,23 km/h
143CARRILLOPierreMSE02:21:187,22 km/h
144CHALÉONPierreMV102:21:357,2 km/h
145BOURGEOISEmmanuelMSE02:21:357,2 km/h
146DE GUILLEBONBenoitMV302:21:507,19 km/h
147VERON-DURANDChristopheMV202:21:557,19 km/h
148MOLNARDavidMSE02:21:567,19 km/h
149MILHOUATHOMASFSE02:22:107,17 km/h
150LOUSTAUManonFSE02:22:147,17 km/h
151LANQUETINKevinMSE02:22:157,17 km/h
152LABERDESQUECarineFV102:22:257,16 km/h
153GRUNENBERGERJulieFSE02:22:317,16 km/h
154CASTAGNÉLaurentMSE02:22:577,14 km/h
155CHANTRECédricMV102:23:017,13 km/h
156LABORDESebastienMV102:23:027,13 km/h
157DULIONCEDRICMSE02:23:037,13 km/h
158LYNCHChristopheMV202:23:247,11 km/h
159DEBOAISNEChloéFSE02:23:297,11 km/h
160DURDOSBastienMSE02:23:307,11 km/h
161BERNETEAUDanMV102:23:317,11 km/h
162MEHRINGMaudFSE02:23:337,11 km/h
163LEMESNAGERLYDIEFV102:23:587,08 km/h
164MENJOUFredericMV102:23:597,08 km/h
165GARATDidierMV202:24:047,08 km/h
166TOURREILMarieFV102:25:027,03 km/h
167AMIELLMathieuMSE02:25:077,03 km/h
168LOUSTAUDavidMV102:25:087,03 km/h
169BOURDELASEvelyneFV102:25:087,03 km/h
170LASSALLEJérômeMV102:25:157,02 km/h
171LABATVanessaFSE02:25:157,02 km/h
172KORBEDEAUAlainMV302:25:297,01 km/h
173VILLACAMPAJeanMV302:25:427 km/h
174SABY-MAUBESYOlivierMSE02:26:036,98 km/h
175LEFÈVREStéphaneMSE02:26:046,98 km/h
176FILIPELOUISMV102:26:146,98 km/h
177BELLOCQLaurentMSE02:26:326,96 km/h
178SOULANLucieFSE02:26:326,96 km/h
179RISPALLoicMV102:26:426,95 km/h
180PLESSIETTristanMSE02:26:576,94 km/h
181SENNESGuillaumeMV102:27:006,94 km/h
182MINVIELLELaurentMV102:27:346,91 km/h
183DULAMONDominiqueMV202:27:346,91 km/h
184HIRIGOYENPhilippeMV202:28:096,88 km/h
185DOMECQChristopheMSE02:28:106,88 km/h
186FERRANPIERREMV102:28:576,85 km/h
187BELLEGARDEJulienMSE02:29:106,84 km/h
188CANINMaxenceMES02:29:246,83 km/h
189BRUNEAUIsabelleFV102:29:406,82 km/h
190CASSOUDominiqueMV202:29:446,81 km/h
191DOMBLIDESJulienFSE02:29:566,8 km/h
192POEYMIROOJoelMV102:29:566,8 km/h
193BERGEROOGuillaumeMSE02:30:016,8 km/h
194BACQUEYRISSESNicolasMSE02:30:046,8 km/h
195DUFOURCQJulienMSE02:30:226,78 km/h
196HARRIETAlexandreMSE02:30:246,78 km/h
197DOMINGUEZMATHIEUMSE02:30:256,78 km/h
198PAUCHARDCyrilMV102:30:366,77 km/h
199WEBERRégisMSE02:31:126,75 km/h
200MONTANÉCaroleFSE02:31:176,74 km/h
201BOUCOUPaulineFSE02:31:456,72 km/h
202NOELOlivierMSE02:31:546,71 km/h
203MONTAUBANThéoMES02:31:556,71 km/h
204CORDOVESNathalieFV102:31:576,71 km/h
205SOULATVéroniqueFV202:32:266,69 km/h
206MONTANEGILLESMV102:32:276,69 km/h
207ROMAINXavierMSE02:33:186,65 km/h
208BROSSETMaurineFSE02:33:196,65 km/h
209ALCOZPhilippeMV102:33:196,65 km/h
210LANNEAurélieFSE02:33:416,64 km/h
211MARTINNADEGEFV102:33:486,63 km/h
212HOEKSEMAPaulineFSE02:34:146,61 km/h
213PUCHEU-COURTEILLESMathieuMSE02:34:306,6 km/h
214POUEYIsabelleFV102:35:106,57 km/h
215DHERSJean-philippeMSE02:35:176,57 km/h
216ROIGJean ChristopheMSE02:35:176,57 km/h
217IDIARTTxominMSE02:37:256,48 km/h
218LASAGAMatthiasMES02:37:256,48 km/h
219BEGUEFredericMV102:37:356,47 km/h
220BOTTLAENDEREricMSE02:37:446,47 km/h
221QUEHEILLEMarieFES02:37:526,46 km/h
222CANINPhilippeMV202:38:186,44 km/h
223CARONNicolasMV102:38:296,44 km/h
224MAILLARDStéphaneMV302:39:116,41 km/h
225LANARDOUNEMaximeMSE02:40:326,35 km/h
226MOLNARRolandMSE02:40:456,35 km/h
227LAUCAIGNESoniaFV102:40:546,34 km/h
228BILLAUDPatrickMV202:40:556,34 km/h
229SARRESManonFES02:40:596,34 km/h
230HANNOUCHESalimMV102:41:056,33 km/h
231PETILLONPhilippeMV102:41:276,32 km/h
232GAETANI LISEOJulieFSE02:41:456,31 km/h
233DANDIHUGUESMSE02:41:496,3 km/h
234FONNICOLAAlexandreMSE02:41:526,3 km/h
235LARÇONCÉDRICMV102:41:546,3 km/h
236LACROUTSBaptisteMV102:41:566,3 km/h
237LUCAZEAUStephaneMV102:42:236,28 km/h
238LETOURNEURCendrineFV202:42:336,27 km/h
239LAGUESAnaisFSE02:42:366,27 km/h
240DA SILVACarlosMV102:42:406,27 km/h
241FANFELLELaurentMV102:42:556,26 km/h
242JUNQUASébastienMV102:43:136,25 km/h
243VILLACAMPAMAXIMEMSE02:43:266,24 km/h
244EUILLETSylvieFSE02:43:496,23 km/h
245SENNESClaireFV102:43:516,23 km/h
246OBERDORFNathalieFV102:44:266,2 km/h
247BOESHFabriceMSE02:44:286,2 km/h
248CAPBLANCQOlivierMV102:44:356,2 km/h
249LEWILLONRodrigueMV102:44:356,2 km/h
250DUPUISMarineFSE02:44:386,2 km/h
251ROMEOSylvainMSE02:44:406,19 km/h
252GARBISOPANTXOMV302:44:456,19 km/h
253CHALOUPINMatthieuMSE02:45:176,17 km/h
254DUBRUNFAUTBernardMV202:45:236,17 km/h
255LARROUYAnneFV102:47:066,1 km/h
256GENEBESNathalieFSE02:47:116,1 km/h
257MIRAMONBenoitFV102:47:246,09 km/h
258MAILLETAnthonyMSE02:47:266,09 km/h
259COLOMBELFabriceMV102:48:136,06 km/h
260FERNANDEZLucasMSE02:48:366,05 km/h
261RAMAROSONMarinaFSE02:48:556,04 km/h
262CAMBORDERegisMV102:49:096,03 km/h
263LACOSTEFabriceFV102:49:096,03 km/h
264FAUREEmmanuelleFV102:50:365,98 km/h
265SÈREVirginieFV202:50:395,98 km/h
266LAPLUMECamilleFSE02:50:395,98 km/h
267LEBOEUFCLEMENCEFSE02:50:405,98 km/h
268MERCIERJeremyMSE02:51:125,96 km/h
269CARSANAFrancisMV202:51:125,96 km/h
270PLANCHECléaFSE02:53:365,88 km/h
271LAPLACEEmilieFSE02:54:395,84 km/h
272MORISSONNicolasMV102:55:185,82 km/h
273LEFEVREAntoineMSE02:56:255,78 km/h
274MOREAUAurélieFSE02:57:325,75 km/h
275WASTIAUXPATRICKMV202:57:325,75 km/h
276GOARREPierreMV102:58:075,73 km/h
277LASSUPhilippeMV203:02:405,58 km/h
278DULIONDELPHINEFSE03:05:355,5 km/h
279CRABOSJean lucMV203:05:355,5 km/h
280BONNECAZECédricMV103:07:065,45 km/h
281PEDEGAYEEmilieFSE03:07:415,43 km/h
282LAMOULIECedricMV103:07:415,43 km/h
283BETEROUSThierryMV203:08:205,42 km/h
284MAUHOURATMarcMV203:08:205,42 km/h
285GARRETACarineFV103:10:545,34 km/h
286CLAVIERFloraFV103:10:585,34 km/h
287ORLANDOLucileFSE03:11:255,33 km/h
288DUPREPhilippeMV203:12:175,3 km/h
289MIGNOTFabienFV103:13:495,26 km/h
290LEFORTXavierMSE03:15:045,23 km/h
291BIZIENVirginieFSE03:19:125,12 km/h
292BARROMESMurielFV203:19:265,11 km/h
293REZIGAFatihaFV203:19:275,11 km/h
294LOMBARDMireilleFV103:22:495,03 km/h
295BOGNARD BELLOCQFannyFV103:22:505,03 km/h
296LACOSTESylvieFV203:26:334,94 km/h
297ALIBERTMarieFV103:31:064,83 km/h
 Pas de résultats